This is the latest recevied weather packets stored in our database for station/object YD2CLX-11. If no packets are shown the sender has not sent any weather packets the latest 10 day(s).
| Time | Temp. | Humidity | Pressure | Rain* | Wind** | Luminosity | Snow |
|---|---|---|---|---|---|---|---|
| 1788075535 | 36.11° C | 43% | 995.8 hPa | - | - | - | - |
| 1788074934 | 35.56° C | 43% | 995.9 hPa | - | - | - | - |
| 1788074333 | 36.67° C | 41% | 995.9 hPa | - | - | - | - |
| 1788073732 | 36.67° C | 41% | 996 hPa | - | - | - | - |
| 1788073131 | 37.22° C | 39% | 996 hPa | - | - | - | - |
| 1788072531 | 36.11° C | 41% | 996.1 hPa | - | - | - | - |
| 1788071930 | 36.67° C | 41% | 996.2 hPa | - | - | - | - |
| 1788071328 | 36.67° C | 41% | 996.1 hPa | - | - | - | - |
| 1788070727 | 36.11° C | 42% | 996.4 hPa | - | - | - | - |
| 1788070125 | 36.11° C | 42% | 996.5 hPa | - | - | - | - |
| 1788069524 | 36.67° C | 41% | 996.7 hPa | - | - | - | - |
| 1788068923 | 36.67° C | 41% | 996.8 hPa | - | - | - | - |
| 1788068323 | 37.22° C | 40% | 997 hPa | - | - | - | - |
| 1788067722 | 37.22° C | 39% | 997.1 hPa | - | - | - | - |
| 1788067133 | 37.22° C | 39% | 997.4 hPa | - | - | - | - |
| 1788066519 | 36.67° C | 40% | 997.7 hPa | - | - | - | - |
| 1788065918 | 36.11° C | 43% | 997.8 hPa | - | - | - | - |
| 1788065316 | 36.11° C | 42% | 998 hPa | - | - | - | - |
| 1788064715 | 36.11° C | 42% | 998.2 hPa | - | - | - | - |
| 1788064113 | 35.56° C | 42% | 998.4 hPa | - | - | - | - |
| 1788063512 | 36.11° C | 43% | 998.5 hPa | - | - | - | - |
| 1788062911 | 35.56° C | 44% | 998.8 hPa | - | - | - | - |
| 1788062310 | 34.44° C | 46% | 998.9 hPa | - | - | - | - |
| 1788061708 | 35° C | 45% | 999.1 hPa | - | - | - | - |
| 1788061107 | 35° C | 46% | 999.4 hPa | - | - | - | - |
* Rain since midnight (hover to see other rain measurements)
** Current wind speed in m/s (hover to see current wind gust speed)